Regional Weather Roundup
Issued by NWS Upton, NY

Current Version | Previous Version | Graphics & Text | Print | Product List | Glossary Off
Versions: 1 2 3 4 5 6 7 8 9 10 11 12 13 14 15 16 17 18 19 20 21 22 23 24 25 26 27 28 29 30 31 32 33 34 35 36 37 38 39 40 41 42 43 44 45 46 47 48 49 50

000
ASUS41 KOKX 271304
RWROKX

REGIONAL WEATHER ROUNDUP
NATIONAL WEATHER SERVICE NEW YORK NY
900 AM EDT FRI MAY 27 2016

NOTE: "FAIR" INDICATES FEW OR NO CLOUDS BELOW 12,000 FEET WITH NO
SIGNIFICANT WEATHER AND/OR OBSTRUCTIONS TO VISIBILITY.

NYZ071-072-176-178-NJZ106-104-271400-
NEW YORK CITY METRO AREA


CITY           SKY/WX    TMP DP  RH WIND       PRES   REMARKS
CENTRAL PARK   MOSUNNY   76  61  59 CALM      30.09S
LAGUARDIA APRT CLOUDY    75  67  76 S7        30.06
KENNEDY INTL   PTSUNNY   70  62  76 S8        30.09R
NEWARK/LIBERTY PTSUNNY   76  63  64 VRB5      30.06S
BRNX BOT. GARD   N/A     72  61  68 SE5       30.08S
TETERBORO      CLOUDY    76  60  57 S8        30.06R
$$

NYZ177-179-078>081-271400-
LONG ISLAND NEW YORK

CITY           SKY/WX    TMP DP  RH WIND       PRES   REMARKS
FARMINGDALE    SUNNY     72  62  71 SW9       30.09R
ISLIP          PTSUNNY   71  62  73 S7        30.08S
SHIRLEY        SUNNY     70  62  76 S7        30.10S
RIVERHEAD        N/A     72  64  78 SW3       30.08S
WESTHAMPTON    MOSUNNY   67  59  75 S8        30.11S
EAST HAMPTON   FAIR      65  59  80 S8        30.09S
MONTAUK POINT    N/A     65  59  81 S7        30.11S
$$

NYZ052-065-067-271400-
HUDSON VALLEY

CITY           SKY/WX    TMP DP  RH WIND       PRES   REMARKS
WHITE PLAINS   CLOUDY    70  61  73 SE5       30.08R
NEWBURGH       MOSUNNY   72  63  73 CALM      30.08R
MONTGOMERY     CLOUDY    75  66  73 CALM      30.06S
POUGHKEEPSIE   CLOUDY    76  60  57 S5        30.05S
ALBANY         PTSUNNY   76  57  51 SE5       30.03S
$$

NJZ001-105-106-008-010-013-015-019>022-104-271400-
NEW JERSEY

CITY           SKY/WX    TMP DP  RH WIND       PRES   REMARKS
NEWARK/LIBERTY PTSUNNY   76  63  64 VRB5      30.06S
TETERBORO      CLOUDY    76  60  57 S8        30.06R
CALDWELL       MOSUNNY   76  63  64 S5        30.06F
MORRISTOWN     PTSUNNY   75  66  73 SW3       30.07F
SOMERVILLE     CLOUDY    75  65  70 CALM      30.04F
SUSSEX         CLOUDY    72  66  81 CALM      30.06S
ANDOVER          N/A     72  67  84 CALM      30.07S
TRENTON        SUNNY     76  65  68 SW8       30.06F
MILLVILLE      SUNNY     76  66  71 VRB6      30.09S
ATLANTIC CITY  SUNNY     77  66  68 SW9       30.09S
WRIGHTSTOWN    NOT AVBL
TOMS RIVER     SUNNY     79  63  57 SW8       30.08F
BELMAR         MOSUNNY   76  66  71 SW7       30.09S
$$

PAZ047>061-062-071-271400-
EASTERN PENNSYLVANIA

CITY           SKY/WX    TMP DP  RH WIND       PRES   REMARKS
PHILADELPHIA   MOSUNNY   77  65  66 SW9       30.07F
ALLENTOWN      SUNNY     75  67  76 CALM      30.07R
SCRANTON       MOSUNNY   76  65  68 W5        30.07S
$$

CTZ002-004>006-009-010-012-RIZ004-006-007-MAZ004-011-015-271400-
SOUTHERN NEW ENGLAND
 IN CT

CITY           SKY/WX    TMP DP  RH WIND       PRES   REMARKS
BRADLEY INTL   PTSUNNY   73  58  59 S3        30.06F
HARTFORD       SUNNY     73  60  63 S5        30.07S
DANBURY        MOSUNNY   71  60  68 SE3       30.09S
WTRBRY/OXFORD  MOSUNNY   70  59  68 S5        30.09F
BRIDGEPORT     CLOUDY    65  60  84 E7        30.07F
MERIDEN        CLOUDY    71  60  68 SE6       30.07F
NEW HAVEN      MOSUNNY   66  60  81 SE5       30.08F
CHESTER        FAIR      70  61  73 SE6       30.09S
GROTON         SUNNY     65  61  87 S5        30.09S
WILLIMANTIC    SUNNY     70  58  65 CALM      30.09F

 IN RI

CITY           SKY/WX    TMP DP  RH WIND       PRES   REMARKS
PROVIDENCE     PTSUNNY   65  58  78 VRB3      30.11S
BLOCK ISLAND   SUNNY     63  57  81 SW17      30.11S
WESTERLY       SUNNY     65  56  72 S6        30.11S

 IN MA

CITY           SKY/WX    TMP DP  RH WIND       PRES   REMARKS
BOSTON         PTSUNNY   66  57  72 NE5       30.11F
WORCESTER      SUNNY     65  56  72 VRB3      30.12S
WESTFIELD      CLOUDY    71  56  58 CALM      30.07S
PROVINCETOWN   FOG       61  58  90 S12       30.12S VSB 1
NANTUCKET      FOG       59  57  93 S10       30.13S VSB 1/4
$$

ANZ330-335-338-340-345-350-353-355-271400-
COASTAL MARINE OBSERVATIONS


STATION/POSITION TIME  SKY/WX   TEMP    WIND        PRES    VSBY  WAVE
                                AIR SEA DIR/SP/G                  HT/PER
                 (UTC)          (F)     (DEG/KT/KT) (MB)    (MI)  (FT/S)
NY HARB ENTRANCE 1150            62 61  190/ 10/ 10 1018.2          2/ 7
20S FIRE ISLAND  1150            61 59  200/ 12/ 12 1018.6          2/ 8
GREAT SOUTH BAY  1200            64 67  220/  6/  6   N/A
23 SSW MONTAUK P 1250            59 57  210/ 10/ 12 1018.8          2/ 8
15 E BARNEGAT LI 1222               59                N/A           3/ 5
HUDSON CANYON    1150            60 55              1019.7          3/ 7
KINGS POINT      1200            63 58              1018.0
EXECUTION ROCKS  NOT AVBL
CENTRAL LI SOUND 1200            61      70/  4/  6   N/A           0
EASTERN LI SOUND 1200            56 53   80/  2/  4   N/A
ROBBINS REEF     1200            68     160/  9/ 10 1017.5
$$


>>>>>>>>>>>>>>>>>>>>>>>>>>>> KEY <<<<<<<<<<<<<<<<<<<<<<<<<<<
>                                                          <
>     SKY/WX - SKY CONDITION/PRESENT WEATHER               <
>     TMP    - TEMPERATURE IN FAHRENHEIT                   <
>     DP     - DEWPOINT IN FAHRENHEIT                      <
>     RH     - RELATIVE HUMIDITY IN PERCENT                <
>     WIND   - DIRECTION AND SPEED IN MPH                  <
>     PRES   - MEAN SEA LEVEL PRESSURE IN INCHES OF HG     <
>     WCI    - WIND CHILL INDEX                            <
>     VSB    - VISIBILITY IN MILES                         <
>     HX     - HEAT INDEX                                  <
>     TC     - TEMPERATURE IN CELSIUS                      <
>     VRB    - VARIABLE WIND DIRECTION                     <
>                                                          <
>>>>>>>>>>>>>>>>>>>>>>>>>>>> KEY <<<<<<<<<<<<<<<<<<<<<<<<<<<





USA.gov is the U.S. government's official web portal to all federal, state and local government web resources and services.